Location: Chaumontel
(49.1247°N, 2.4324°E)
Time: 21:19:29
(UTC+00:00)

CZ-4 R/B - Pass Details

Date: 03 February 2023
Orbit: 525 x 587 km, 97.7° (Epoch: 21 March)

Event Time Altitude Azimuth Distance (km) Brightness Sun altitude
Rises 19:37:23 0° 192° (SSW) 2,800 5.0 -27.5°
Reaches altitude 10° 19:39:46 10° 204° (SSW) 1,899 4.2 -27.9°
Maximum altitude 19:43:21 28° 265° (W) 1,088 3.4 -28.5°
Drops below altitude 10° 19:46:56 10° 325° (NW) 1,885 4.5 -29.1°
Sets 19:49:18 0° 337° (NNW) 2,777 5.3 -29.5°
